Время (UTC), дата Ветер
(°,м/с) 
Видим.   Явления Облачность Т
(°С)
Тd
(°С)
f(%) Тe
(°С)
Pmin
(гПа)
dP
(гПа)
Po
(мм)
O2
(г/м3)
Тmin Tmax R s Состояние
почвы
00 01.05.11 тихо ()   >10 км    3/0 верхняя 
[Ci fib]
+2 -1.4 78 +2  1020.3  -0.9  740  296  -1.5         
03 01.05.11 220 (ЮЗ) >10 км    5/0 верхняя 
[Ci fib]
+12.2 -3.3 34 +13  1018  -1.1  739  285           
06 01.05.11 230 (ЮЗ) >10 км    5/0 верхняя 
[Ci fib]
+17.3 -3.3 24 +18  1016.1  -1.2  738  280           
09 01.05.11 290 (З) >10 км    8/3 2000 м средняя, верхняя 
[Ac cast|Ci fib]
+19.4 -2.2 23 +20  1014.6  -1.3  737  277           
12 01.05.11 310 (СЗ) >10 км    9/6 600 м кучево-дожд., средняя, верхняя 
[Cb cap|Ac trans|Ci fib]
+16.3 -0.7 31 +17  1015.1  0.2  737  280    +19.9       
15 01.05.11 290 (З) 4000 м    9/6 600 м кучево-дожд., средняя 
[Cb cap|Ac trans]
+10.3 +4.5 67 +10  1018  2.1  739  286           
18 01.05.11 220 (ЮЗ) 4000 м  ливневой дождь  9/9 2000 м средняя 
[Ac trans]
+7.4 +6.1 91 +8  1017.3  -0.1  738  288           
21 01.05.11 240 (ЮЗ) 4000 м  ливневой дождь  9/5 600 м кучево-дожд., средняя 
[Cb cap|Ac trans]
+6.9 +4.9 87 +7  1016.7  -0.6  737  289           
00 02.05.11 310 (СЗ) >10 км  {ливн. осадки}  10/10 600 м кучево-дожд. 
[Cb cap]
+4.5 +2.2 85 +4  1019.3  2.2  739  293  +4.4       
03 02.05.11 300 (СЗ) >10 км  {ливн. осадки}  8/8 600 м кучево-дожд. 
[Cb cap]
+7.4 +2.1 69 +7  1020.7  1.7  740  290           
06 02.05.11 320 (СЗ) >10 км  слаб. ливневой дождь  8/6 600 м кучево-дожд., средняя 
[Cb cap|Ac trans]
+9 -4.1 39 +8  1020.9  0.4  741  289           
09 02.05.11 260 (З) >10 км  в посл. час крупа{ливн. осадки}  8/4 600 м кучево-дожд., средняя 
[Cb cap|Ac cast]
+9.9 -1.7 44 +9  1019.6  -1.2  740  288           
12 02.05.11 260 (З) >10 км  {ливн. осадки}  9/4 600 м кучево-дожд., средняя 
[Cb cap|Ac cast]
+7.2 -1.7 53 +7  1019.2  -0.7  739  290    +11.1     
15 02.05.11 260 (З) 2{12}  4000 м    9/5 600 м кучево-дожд., средняя 
[Cb cap|Ac trans]
+3.3 -0.5 76 +3  1018.6  -1.1  738  294           
18 02.05.11 280 (З) 4000 м  слаб. ливневой дождь  10/10 600 м кучево-дожд. 
[Cb cap]
+1.6 +1.1 96 +2  1017.1  -1.6  737  295           
21 02.05.11 280 (З) 4000 м  слаб. ливневой дождь со снегом  10/10 600 м кучево-дожд. 
[Cb cap]
+1 +0.5 96 +2  1016.4  -0.7  737  296           
00 03.05.11 290 (З) >10 км  {ливн. осадки}  5/3 600 м кучево-дожд., верхняя 
[Cb cap|Ci ing]
+0.5 -0.9 90 1017.2  0.7  737  297  +0.5       
03 03.05.11 340 (С) >10 км    8/8 600 м кучево-дожд. 
[Cb cap]
+5.2 -5.3 47 +4  1017.3  0.7  738  292           
06 03.05.11 300 (СЗ) >10 км  в посл. час крупа{ливн. осадки}  9/9 600 м кучево-дожд. 
[Cb cap]
+7.7 -4.1 43 +7  1017.5  0.4  738  290           
09 03.05.11 290 (З) >10 км  слаб. ливневой дождь  9/9 600 м кучево-дожд. 
[Cb cap]
+4.8 -0.2 70 +4  1019.5  1.6  739  293           
12 03.05.11 210 (ЮЗ) >10 км  в посл. час ливневой дождь  10/10 600 м кучево-дожд. 
[Cb cap]
+4.5 +0 73 +5  1019.8  0.3  739  293    +8  0.7     
15 03.05.11 280 (З) 4000 м    4/4 600 м кучево-дожд. 
[Cb cap]
+3.3 -3.4 61 +3  1021  740  295           
18 03.05.11 260 (З) 4000 м    8/5 600 м кучево-дожд., средняя 
[Cb cap|Ac trans]
+4.2 -2.3 63 +4  1020.6  -0.2  740  294           
21 03.05.11 240 (ЮЗ) 4000 м    9/5 2000 м средняя, верхняя 
[Ac lent|Ci fib]
+2.4 -2.2 72 +2  1020.4  -0.5  740  296           
00 04.05.11 010 (С) >10 км  в посл. час ливневой дождь  9/6 600 м кучево-дожд., средняя, верхняя 
[Cb cap|Ac trans|Ci fib]
+2.4 -0.3 82 +3  1020.2  -0.2  740  295  +1.9    0.1     
03 04.05.11 260 (З) >10 км    9/6 600 м кучево-дожд., средняя, верхняя 
[Cb cap|Ac trans|Ci fib]
+6.9 -1 57 +7  1019.1  -0.5  739  291           
06 04.05.11 280 (З) >10 км  слаб. ливневой дождь  10/10 600 м кучево-дожд. 
[Cb cap]
+6.1 -2.1 56 +5  1019.3  0.1  739  292           
09 04.05.11 280 (З) >10 км  {ливн. осадки}  9/4 600 м кучево-дожд., верхняя 
[Cb cap|Ci fib]
+8.2 -0.9 53 +8  1018.5  -0.6  739  289           
12 04.05.11 110 (В) >10 км  {ливн. осадки}  9/3 600 м кучево-дожд., средняя, верхняя 
[Cb cap|Ac trans|Ci fib]
+5.1 +0.7 73 +6  1018.4  -0.4  738  292    +9  0.3     
15 04.05.11 230 (ЮЗ) 4000 м    9/6 600 м кучево-дожд., верхняя 
[Cb cap|Ci fib]
+0.8 -1.2 86 +1  1019.3  0.3  739  297           
18 04.05.11 250 (З) 4000 м    9/4 600 м кучево-дожд., верхняя 
[Cb cap|Ci fib]
-0.2 -1.4 92 1018.4  -0.1  738  298           
21 04.05.11 250 (З) 4000 м    8/5 600 м кучево-дожд., средняя, верхняя 
[Cb cap|Ac lent|Ci fib]
-1.1 -1.7 96 -1  1017.7  -0.8  737  298           
00 05.05.11 тихо ()   >10 км    9/6 600 м кучево-дожд., средняя, верхняя 
[Cb cap|Ac lent|Ci fib]
+0.8 -0.3 92 +1  1016.5  -0.9  737  296  -1.5         
03 05.05.11 070 (В) >10 км    9/6 600 м кучево-дожд., средняя 
[Cb cap|Ac trans]
+4.7 +0.8 76 +4  1015.3  -0.7  736  291           
06 05.05.11 080 (В) >10 км    10/10 600 м кучево-дожд. 
[Cb cap]
+11.7 -1.4 40 +11  1012.7  -1.7  735  284           
09 05.05.11 320 (СЗ) >10 км  {ливн. осадки}  10/10 600 м кучево-дожд. 
[Cb cap]
+9.7 -2.2 43 +11  1012.4  -0.5  734  286           
12 05.05.11 тихо ()   >10 км  {ливн. осадки}  10/10 600 м кучево-дожд. 
[Cb cap]
+9.7 -1.7 45 +10  1013  0.4  735  286    +12  0.0     
15 05.05.11 240 (ЮЗ) 4000 м    6/3 2000 м средняя, верхняя 
[Ac trans|Ci fib]
+5.1 -0.2 69 +6  1013.3  -0.1  735  291           
18 05.05.11 250 (З) 4000 м    3/3 2000 м средняя 
[Ac trans]
+1.3 -1.3 83 +1  1013.4  -0.4  734  295           
21 05.05.11 240 (ЮЗ) 4000 м    3/3 2000 м средняя 
[Ac lent]
+0.1 -1.7 88 -1  1012.7  -0.8  734  296           
00 06.05.11 тихо ()   >10 км    3/1 2000 м средняя, верхняя 
[Ac lent|Ci fib]
+2.4 -0.9 79 +2  1012.1  -0.3  734  293  -0.2         
03 06.05.11 080 (В) >10 км    5/3 600 м средняя, верхняя 
[Cu med, cong|Ac trans|Ci fib]
+9.4 -0.5 50 +10  1010.6  -0.6  733  286           
06 06.05.11 360 (С) >10 км    10/10 600 м кучево-дожд. 
[Cb cap]
+11 -1.4 42 +11  1009.1  -1.3  732  284           
09 06.05.11 010 (С) >10 км    9/8 600 м кучево-дожд., верхняя 
[Cb cap|Ci fib]
+12 -1.9 38 +12  1009.4  0.4  733  283           
12 06.05.11 360 (С) >10 км    8/3 600 м кучево-дожд., средняя, верхняя 
[Cb cap|Ac cuf|Ci fib]
+9.2 +0 53 +10  1010.5  0.8  733  286    +13.5       
15 06.05.11 тихо ()   4000 м    8/5 600 м кучево-дожд., средняя 
[Cb cap|Ac cuf]
+6.1 +0.5 67 +6  1011.3  0.4  733  289           
18 06.05.11 260 (З) 4000 м    3/3 2000 м средняя 
[Ac cuf]
+2.5 -0.2 82 +2  1012  0.2  734  293           
21 06.05.11 240 (ЮЗ) 4000 м    3/3 2000 м средняя 
[Ac lent]
+1.1 -0.3 90 1011.8  -0.3  733  294           
00 07.05.11 050 (СВ) >10 км    9/3 600 м кучево-дожд., средняя 
[Cb cap|Ac cast]
+1.4   1011.9  0.6  734    -0.2         
03 07.05.11 310 (СЗ) >10 км    9/8 600 м кучево-дожд., средняя 
[Cb cap|Ac trans]
+9.2 +0 53 +9  1011.3  -0.2  734  286           
06 07.05.11 300 (СЗ) >10 км  {ливн. осадки}  8/8 600 м кучево-дожд. 
[Cb cap]
+12.4 -2.2 36 +13  1009.1  -1.8  732  282           
09 07.05.11 250 (З) >10 км  в посл. час ливневой дождь  8/5 600 м кучево-дожд., средняя 
[Cb cap|Ac lent]
+11 +1.3 51 +10  1008.7  -0.5  732  283           
12 07.05.11 250 (З) >10 км  {ливн. осадки}  8/8 600 м кучево-дожд., средняя 
[Cb cap|Ac trans]
+11 -0.7 44 +11  1008.7  732  284    +14.1  0.7     
15 07.05.11 220 (ЮЗ) 4000 м    4/4 2000 м средняя 
[Ac lent]
+7.6 +0.6 61 +6  1008.3  -0.8  731  287           
18 07.05.11 240 (ЮЗ) >10 км    10/10 600 м кучево-дожд. 
[Cb cap]
+7.7 +0 58 +6  1007  -1.3  730  286           
21 07.05.11 260 (З) 4000 м  в посл. час ливневой дождь  10/10 600 м кучево-дожд. 
[Cb cap]
+6.6 +2.7 76 +6  1005.8  -1.3  729  286           
00 08.05.11 320 (СЗ) >10 км  слаб. ливневой дождь  9/5 600 м кучево-дожд., средняя 
[Cb cap|Ac trans]
+2 +0.9 92 +1  1008.7  2.3  731  292  +1.9       
03 08.05.11 320 (СЗ) >10 км  слаб. крупа{ливн. осадки}  9/8 600 м кучево-дожд., верхняя 
[Cb cap|Ci fib]
+2.2 -1.8 75 +2  1010.2  1.5  732  293           
06 08.05.11 320 (СЗ) >10 км  {ливн. осадки}  10/10 600 м кучево-дожд. 
[Cb cap]
+3.7 -5.2 52 +3  1009.5  -0.6  732  291           
09 08.05.11 300 (СЗ) >10 км  в посл. час ливневой снег  9/8 600 м кучево-дожд., средняя 
[Cb cap|Ac trans]
+4.6 -5.9 46 +4  1009.1  -0.2  732  290           
12 08.05.11 330 (СЗ) >10 км  в посл. час ливневой снег  10/10 600 м кучево-дожд. 
[Cb cap]
+1.8 -5.1 60 +1  1011.7  2.2  733  294    +4.8  0.3     
15 08.05.11 300 (СЗ) 4000 м  {ливн. осадки}  8/5 600 м кучево-дожд., средняя 
[Cb cap|Ac trans]
-1.3 -8.1 60 -2  1015.3  3.1  736  299           
18 08.05.11 250 (З) 4000 м  {ливн. осадки}  3/3 2000 м средняя 
[Ac trans]
-2.8 -9.9 58 -4  1017.1  1.4  737  301           
21 08.05.11 260 (З) 4000 м    ясно 
-3.8 -11 57 -5  1017.4  0.2  737  302           
00 09.05.11 260 (З) >10 км  слаб. ливневой снег  6/5 600 м кучево-дожд., верхняя 
[Cb cap|Ci fib]
-2.7 -5.7 80 -4  1018.3  1.2  738  301  -4    0.0  <0.5  равномерный
сухой снег
100% 
06 09.05.11 290 (З) >10 км  слаб. ливневой снег  9/8 600 м кучево-дожд., средняя, верхняя 
[Cb cap|Ac trans|Ci fib]
+1.8 -8.5 46 +1  1018  738  296           
09 09.05.11 230 (ЮЗ) >10 км  в посл. час ливневой снег  9/6 600 м кучево-дожд., верхняя 
[Cb cap|Ci fib]
+1.9 -6.2 55 1018.9  0.8  738  296           
12 09.05.11 280 (З) >10 км  {ливн. осадки}  8/5 600 м кучево-дожд., средняя, верхняя 
[Cb cap|Ac trans|Ci fib]
+1.8 -7.1 52 +1  1020.2  1.3  739  297    +4.5  0.0     
15 09.05.11 260 (З) 4000 м  {ливн. осадки}  8/4 600 м кучево-дожд., верхняя 
[Cb cap|Ci fib]
-0.2 -7 60 -1  1022.4  1.8  741  299           
18 09.05.11 260 (З) 4000 м  {ливн. осадки}  9/6 600 м кучево-дожд., верхняя 
[Cb cap|Ci fib]
+0.1 -6.2 63 -1  1023.1  0.8  741  299           
21 09.05.11 250 (З) 4000 м    9/8 600 м кучево-дожд., средняя 
[Cb cap|Ac trans]
-0.7 -4.9 73 -3  1023.8  0.6  742  300           
00 10.05.11 250 (З) >10 км    9/3 600 м кучево-дожд., средняя 
[Cb cap|Ac trans]
+0.4 -4.8 68 -2  1025  1.3  743  299  -0.9    0.0     
03 10.05.11 280 (З) >10 км    10/10 600 м кучево-дожд. 
[Cb cap]
+4.8 -8.7 37 +4  1024.7  0.1  743  295           
06 10.05.11 240 (ЮЗ) >10 км    10/10 600 м кучево-дожд. 
[Cb cap]
+7.3 -7.8 33 +6  1022.6  -1.6  742  292           
09 10.05.11 250 (З) >10 км    10/3 600 м кучево-дожд., средняя 
[Cb cap|Ac trans]
+8.1 -6 36 +7  1021.9  -0.6  741  291           
12 10.05.11 270 (З) >10 км    10/5 600 м кучево-дожд., средняя 
[Cb cap|Ac As]
+7 -3.3 48 +6  1021.4  -0.6  741  291    +8.5       
15 10.05.11 230 (ЮЗ) 4000 м  слаб. ливневой дождь  10/10 600 м кучево-дожд. 
[Cb cap]
+3 +1.4 89 +1  1019.9  -1.9  739  294           
18 10.05.11 220 (ЮЗ) 5{15}  4000 м  {ливн. осадки}  8/6 600 м кучево-дожд., средняя 
[Cb cap|Ac trans]
+3.7 +0 77 +1  1017.2  -2.6  737  293           
21 10.05.11 230 (ЮЗ) 4{13}  4000 м  {ливн. осадки}  10/10 600 м кучево-дожд. 
[Cb cap]
+5.2 -1 64 +4  1016.4  -0.5  737  291           
00 11.05.11 240 (ЮЗ) 5{15}  >10 км  {ливн. осадки}  10/10 2000 м 
[As trans]
+7.6 -2.5 49 +6  1015.6  -0.6  737  289  +2.6       
03 11.05.11 240 (ЮЗ) 6{15}  >10 км    10/3 2000 м средняя, верхняя 
[Ac trans|Cs]
+11.6 -3.8 34 +10  1014.8  -0.3  736  285           
06 11.05.11 250 (З) 5{13}  >10 км    10/4 600 м средняя, верхняя 
[Cu med, cong|Ac lent|Cs]
+17.1 -5 22 +17  1013.2  -0.8  736  279           
09 11.05.11 260 (З) 3{13}  >10 км    10/8 600 м кучево-дожд., средняя 
[Cb cap|Ac As]
+17.3 -4.7 22 +18  1012.9  -0.3  736  279           
12 11.05.11 250 (З) 3{13}  >10 км    8/5 600 м кучево-дожд., средняя, верхняя 
[Cb cap|Ac trans|Ci fib]
+15.7 -2.2 29 +16  1013.7  0.6  736  281    +18.1       
15 11.05.11 230 (ЮЗ) 4000 м    3/3 2000 м средняя 
[Ac trans]
+14.2 -3.3 30 +14  1013.9  736  282           
18 11.05.11 230 (ЮЗ) 4000 м    5/5 2000 м средняя 
[Ac trans]
+13.7 -4.1 29 +13  1014.1  0.1  736  283           
21 11.05.11 240 (ЮЗ) 4000 м    5/5 2000 м средняя 
[Ac trans]
+12.4 -4.4 31 +12  1014.6  0.3  736  284           
00 12.05.11 220 (ЮЗ) 6{14}  >10 км    3/3 2000 м средняя 
[Ac trans]
+12 -4.7 31 +11  1014.9  0.2  736  285  +10.9         
03 12.05.11 240 (ЮЗ) 5{14}  >10 км    5/5 2000 м средняя 
[Ac trans]
+16.5 -3.6 25 +16  1015  0.7  737  280           
06 12.05.11 250 (З) >10 км    8/8 2000 м средняя 
[Ac trans]
+20.7 -2.7 21 +21  1014.6  737  276           
09 12.05.11 250 (З) >10 км    ясно 
+23.6 +0 21 +24  1012.9  1.3  736  273           
12 12.05.11 210 (ЮЗ) >10 км    ясно 
+21.9 -0.9 22 +22  1012.1  -0.9  735  274    +23.6       
15 12.05.11 230 (ЮЗ) 4000 м    ясно 
+14.2 -0.9 35 +15  1013.2  0.2  735  282           
18 12.05.11 240 (ЮЗ) 4000 м    ясно 
+14.8 -2.5 30 +15  1012.6  -0.6  735  281           
21 12.05.11 230 (ЮЗ) >10 км    ясно 
+14.5 -3.3 29 +15  1012  -0.6  735  281           
00 13.05.11 220 (ЮЗ) >10 км    3/0 верхняя 
[Ci fib]
+15.6 -3.3 27 +16  1011.8  735  280  +11         
03 13.05.11 250 (З) >10 км    8/0 верхняя 
[Ci fib]
+22 -2.5 19 +22  1010.5  -0.6  734  274           
06 13.05.11 250 (З) >10 км    4/1 2000 м средняя, верхняя 
[Ac lent|Ci fib]
+25.3 -1.2 17 +25  1008.2  -1.8  733  270           
09 13.05.11 250 (З) >10 км    9/0 верхняя 
[Ci fib]
+25.4 -4.3 14 +25  1007.1  -1.1  732  270           
12 13.05.11 190 (Ю) >10 км    3/3 1000 м 
[Cu med, cong]
+24.5 -2.7 16 +25  1005.7  -1.5  731  270    +26.1       
15 13.05.11 230 (ЮЗ) 4000 м    ясно 
+15.8 +0.2 35 +17  1006.9  0.3  731  278           
18 13.05.11 230 (ЮЗ) 4000 м    3/3 2000 м средняя, верхняя 
[Ac trans|Ci fib]
+15.3 -0.7 33 +16  1006.4  -0.5  731  279           
21 13.05.11 230 (ЮЗ) >10 км    9/4 2000 м средняя, верхняя 
[Ac trans|Ci fib]
+17.4 -2.2 26 +18  1005.2  -1  730  277           
00 14.05.11 230 (ЮЗ) >10 км    9/5 600 м кучево-дожд., верхняя 
[Cb cap|Ci fib]
+17.5 -1.2 28 +18  1006.3  1.1  731  277  +14.7         
03 14.05.11 310 (СЗ) >10 км    9/8 600 м кучево-дожд., средняя, верхняя 
[Cb cap|Ac cast|Ci fib]
+18.9 +5.5 41 +20  1009  2.8  733  275           
06 14.05.11 330 (СЗ) >10 км  {ливн. осадки}  8/6 600 м кучево-дожд., верхняя 
[Cb cap|Ci fib]
+13.9 +7.8 67 +14  1013  3.3  735  281           
09 14.05.11 330 (СЗ) >10 км    6/5 600 м кучево-дожд., средняя 
[Cb cap|Ac lent]
+16.3 +3.8 43 +17  1012.4  -0.3  735  279           
12 14.05.11 330 (СЗ) >10 км    ясно 
+15.6 -0.2 34 +16  1012  -0.5  735  280    +20.5  0.0     
15 14.05.11 250 (З) 4000 м    3/3 2000 м средняя 
[Ac trans]
+7.9 -0.2 57 +8  1013.3  0.4  735  288           
18 14.05.11 240 (ЮЗ) 4000 м    3/3 2000 м средняя 
[Ac trans]
+5.6 -2.1 58 +6  1013.8  0.2  735  290           
21 14.05.11 250 (З) >10 км    8/8 2000 м средняя 
[Ac trans]
+4.2 -3 59 +5  1012.9  -1  734  292           
00 15.05.11 тихо ()   >10 км    9/4 600 м кучево-дожд., средняя 
[Cb cap|Ac trans]
+5.5 -1.6 60 +6  1012.1  -0.7  734  290  +3.5         
03 15.05.11 090 (В) >10 км    10/10 2000 м 
[Ac trans]
+9.6 +0.9 55 +11  1010.3  -1.2  733  285           
06 15.05.11 100 (В) >10 км    10/10 600 м кучево-дожд. 
[Cb cap]
+13.2 +4.3 55 +14  1008.1  -1.8  732  280           
09 15.05.11 100 (В) >10 км    9/3 600 м кучево-дожд., средняя 
[Cb cap|Ac trans]
+16.8 +7 52 +17  1004.9  -2.6  730  276           
12 15.05.11 270 (З) >10 км  в посл. час ливневой дождь{гроза}  10/10 600 м кучево-дожд. 
[Cb cap]
+12.6 +10.6 88 +16  1003  -2.3  728  278    +19.5     
15 15.05.11 230 (ЮЗ) 4000 м  слаб. ливневой дождь  10/10 600 м кучево-дожд. 
[Cb cap]
+10.8 +9.8 94 +13  1002.9  -0.3  728  280           
18 15.05.11 260 (З) 4000 м  слаб. ливневой дождь  10/10 600 м кучево-дожд. 
[Cb cap]
+8.8 +7.6 92 +9  1002.3  -0.8  727  282           
21 15.05.11 300 (СЗ) >10 км  {ливн. осадки}  10/10 600 м кучево-дожд. 
[Cb cap]
+6.1 +3.7 85 +6  1005.9  3.1  729  287           
00 16.05.11 270 (З) >10 км  {ливн. осадки}  9/8 600 м кучево-дожд., верхняя 
[Cb cap|Ci fib]
+5.5 -0.3 66 +5  1009.8  3.7  732  289  +5       
03 16.05.11 290 (З) 3{12}  >10 км  {ливн. осадки}  8/8 600 м кучево-дожд. 
[Cb cap]
+4.5 +0.9 77 +3  1013.2  3.2  735  291           
06 16.05.11 280 (З) >10 км  {ливн. осадки}  9/9 600 м кучево-дожд. 
[Cb cap]
+8.7 -3.6 42 +8  1014.9  736  288           
09 16.05.11 310 (СЗ) >10 км  {ливн. осадки}  10/10 600 м кучево-дожд. 
[Cb cap]
+7.9 -5 40 +7  1015.4  0.4  736  289           
12 16.05.11 280 (З) >10 км  {ливн. осадки}  10/5 600 м кучево-дожд., верхняя 
[Cb cap|Ci fib]
+6.3 -1.2 59 +6  1016.7  1.2  737  290    +8.7  0.4     
15 16.05.11 240 (ЮЗ) 4000 м    ясно 
+2.1 -6.3 54 +3  1018.4  1.2  738  296           
18 16.05.11 270 (З) 4000 м    ясно 
+1.9 -8.9 45 +1  1018.6  0.1  738  296           
21 16.05.11 240 (ЮЗ) 4000 м    5/5 600 м кучево-дожд. 
[Cb cap]
-0.5 -2.3 88 -1  1019.6  0.6  739  298           
00 17.05.11 270 (З) >10 км    9/5 600 м кучево-дожд., средняя, верхняя 
[Cb cap|Ac trans|Ci fib]
+1.7 -5.2 60 1020.3  740  297  -0.8         
03 17.05.11 280 (З) >10 км  слаб. крупа  10/10 600 м кучево-дожд. 
[Cb cap]
+3.3 -7.5 45 +2  1020.3  0.2  740  295           
06 17.05.11 280 (З) 5{13}  >10 км  в посл. час ливневой снег  9/8 600 м кучево-дожд., верхняя 
[Cb cap|Ci fib]
+6.3 -8.9 33 +4  1020.2  0.3  740  292           
09 17.05.11 310 (СЗ) 3{12}  >10 км  в посл. час ливневой снег  9/8 600 м кучево-дожд., верхняя 
[Cb cap|Ci fib]
+4.4 -6.2 46 +3  1021  0.6  740  294           
12 17.05.11 290 (З) >10 км  {ливн. осадки}  9/6 600 м кучево-дожд., средняя 
[Cb cap|Ac cuf]
+4.5 -7.3 42 +4  1021.7  0.6  741  294    +6.6       
15 17.05.11 270 (З) 4000 м  {ливн. осадки}  10/10 600 м кучево-дожд. 
[Cb cap|Ac trans]
+2 -4.1 64 +3  1023.3  1.3  742  297           
18 17.05.11 270 (З) 4000 м  {ливн. осадки}  10/10 600 м кучево-дожд. 
[Cb cap]
+1.3 -2 79 +1  1024.4  743  298           
21 17.05.11 290 (З) 4000 м  в посл. час ливневой снег  10/10 600 м кучево-дожд. 
[Cb cap]
+1.6 -4.5 64 +1  1024.8  0.4  743  298           
00 18.05.11 250 (З) >10 км  {ливн. осадки}  10/10 600 м кучево-дожд. 
[Cb cap]
+1.8 -6.1 56 +1  1025.7  0.8  743  298  +1.2    0.0     
03 18.05.11 270 (З) >10 км    10/10 600 м кучево-дожд. 
[Cb cap]
+5.2 -6.2 44 +4  1025.6  0.4  744  295           
06 18.05.11 280 (З) >10 км    8/8 600 м кучево-дожд. 
[Cb cap]
+9.6 -6 33 +9  1023.5  -1.6  743  290           
09 18.05.11 260 (З) >10 км    8/6 600 м кучево-дожд., средняя 
[Cb cap|Ac trans]
+12 -4.4 31 +12  1020.8  -2.4  741  286           
12 18.05.11 280 (З) >10 км    9/5 600 м кучево-дожд., средняя 
[Cb cap|Ac trans]
+11.4 -5 31 +12  1019.7  -1  740  287    +12.1       
15 18.05.11 250 (З) 4000 м    9/5 600 м кучево-дожд., средняя 
[Cb cap|Ac trans]
+10.1 -5 34 +9  1018.5  -1.3  739  288           
18 18.05.11 280 (З) 4000 м    9/6 600 м кучево-дожд., средняя 
[Cb cap|Ac trans]
+10.4 -2.5 40 +10  1017.9  -0.6  739  287           
21 18.05.11 070 (В) >10 км  слаб. ливневой дождь  9/6 600 м кучево-дожд., средняя 
[Cb cap|Ac trans]
+6 +4.4 90 +6  1020.6  2.2  740  291           
00 19.05.11 тихо ()   >10 км  слаб. ливневой дождь  9/6 600 м кучево-дожд., средняя 
[Cb cap|Ac trans]
+6.1 +4.5 89 +6  1022.1  -1.4  741  291  +6    0.0     
03 19.05.11 010 (С) >10 км  {ливн. осадки}  9/0 верхняя 
[Ci fib]
+11.2 +2.9 57 +12  1021.8  0.3  741  287           
06 19.05.11 330 (СЗ) >10 км    9/8 600 м кучево-дожд., верхняя 
[Cb cap|Ci fib]
+16.7 +1.3 35 +18  1019.6  -1.4  740  281           
09 19.05.11 300 (СЗ) >10 км    9/6 600 м кучево-дожд., средняя 
[Cb cap|Ac cuf]
+19 -0.5 27 +20  1018.4  -1  740  279           
12 19.05.11 280 (З) >10 км    8/3 600 м кучево-дожд., средняя, верхняя 
[Cb cap|Ac trans|Ci fib]
+19.1 -0.7 26 +20  1018  -0.4  739  278    +20.2  0.0     
15 19.05.11 250 (З) >10 км    9/4 2000 м средняя, верхняя 
[Ac trans|Ci fib]
+16.3 -1.4 30 +17  1018.4  0.1  739  281           
18 19.05.11 240 (ЮЗ) 4000 м    9/3 2000 м средняя, верхняя 
[Ac trans|Ci fib]
+15.3 -1.9 31 +16  1019  0.5  740  282           
21 19.05.11 250 (З) >10 км    6/3 2000 м средняя, верхняя 
[Ac trans|Ci fib]
+12.4 -2.2 36 +12  1019.6  0.2  740  285           
00 20.05.11 240 (ЮЗ) >10 км    9/4 2000 м средняя, верхняя 
[Ac trans|Ci fib]
+13.9 -3 31 +14  1020  0.5  740  284  +11.8         
03 20.05.11 230 (ЮЗ) >10 км    9/0 верхняя 
[Ci fib]
+19.1 -0.5 27 +20  1019.4  0.1  740  279           
06 20.05.11 250 (З) >10 км    3/0 верхняя 
[Ci fib]
+22.5 -1.7 20 +23  1017.9  -1.2  740  275           
09 20.05.11 270 (З) >10 км    ясно 
+23 -1.9 19 +23  1015.2  -2.4  738  274           
12 20.05.11 220 (ЮЗ) >10 км    ясно 
+22.4 -1.9 20 +22  1014.2  -1.2  737  275    +23.5       
15 20.05.11 240 (ЮЗ) >10 км    ясно 
+14.8 -2.5 30 +15  1014.6  -0.5  736  282           
18 20.05.11 250 (З) 4000 м    ясно 
+10.5 -1.2 44 +11  1014.7  -0.3  736  286           
21 20.05.11 250 (З) >10 км    ясно 
+7 -0 61 +8  1014.8  -0.2  736  289           
00 21.05.11 тихо ()   >10 км    ясно 
+10.9 +1.3 51 +11  1013.9  -0.4  736  285  +5.2         
03 21.05.11 050 (СВ) >10 км    10/0 верхняя 
[Cs]
+18 +7.4 50 +19  1012.6  -0.5  735  277           
06 21.05.11 060 (СВ) >10 км    10/0 верхняя 
[Cs]
+24.2 +0.4 21 +24  1009.4  -2.4  734  271           
09 21.05.11 060 (СВ) >10 км    10/0 верхняя 
[Cs]
+25 -0.7 18 +25  1007.9  -1.4  733  270           
12 21.05.11 060 (СВ) >10 км    10/0 средняя, верхняя 
[Ac trans|Ci fib]
+23.1 +5.1 31 +23  1007.1  -1.1  732  271    +25       
15 21.05.11 260 (З) >10 км    9/5 2000 м средняя, верхняя 
[Ac trans|Ci fib]
+14.5 +3.4 47 +15  1008.6  0.5  732  280           
18 21.05.11 240 (ЮЗ) 4000 м    9/8 2000 м средняя, верхняя 
[Ac trans|Ci fib]
+11.7 +2.5 53 +13  1008.3  -0.5  732  282           
21 21.05.11 240 (ЮЗ) 4000 м    9/4 2000 м средняя, верхняя 
[Ac lent|Ci fib]
+9.3 +1.9 60 +10  1008.1  -0.4  731  285           
00 22.05.11 тихо ()   >10 км    10/0 верхняя 
[Cs]
+11.5 +5.1 65 +12  1007.7  -0.1  731  282  +7.4         
03 22.05.11 080 (В) >10 км    10/0 верхняя 
[Cs]
+17.2 +5.1 45 +19  1007.1  731  276           
06 22.05.11 100 (В) >10 км    10/5 600 м кучево-дожд., средняя 
[Cb cap|As trans]
+21 +6.1 38 +21  1005.9  -0.8  731  272           
09 22.05.11 040 (СВ) >10 км    10/4 600 м кучево-дожд., верхняя 
[Cb cap|Cs]
+23.9 +6.2 32 +24  1004.5  -1.1  730  269           
12 22.05.11 290 (З) >10 км    10/8 600 м кучево-дожд., верхняя 
[Cb cap|Cs]
+21.3 +6.1 37 +21  1004.5  -0.3  730  272    +24.2       
15 22.05.11 220 (ЮЗ) >10 км    10/8 600 м кучево-дожд., верхняя 
[Cb cap|Cs]
+16.9 +6.5 50 +18  1004.8  0.1  730  276           
18 22.05.11 240 (ЮЗ) 4000 м    8/8 600 м кучево-дожд. 
[Cb cap]
+15 +6.8 58 +16  1004.9  -0.3  730  277           
21 22.05.11 тихо ()   >10 км    10/10 600 м кучево-дожд. 
[Cb cap]
+13.2 +6.2 62 +13  1005.5  0.3  730  279           
00 23.05.11 270 (З) >10 км    9/9 600 м кучево-дожд. 
[Cb cap]
+11.9 +7.4 74 +13  1005.7  0.1  730  280    +11.9       
03 23.05.11 360 (С) 4000 м  дым  10/6 600 м кучево-дожд., средняя 
[Cb cap|Ac trans]
+16.7 +6.2 50 +18  1005.4  0.3  730  276           
06 23.05.11 030 (СВ) 4000 м  дым  9/9 2000 м средняя 
[Ac trans]
+19.6 +3.2 34 +21  1005  -0.1  730  274           
09 23.05.11 270 (З) >10 км  гроза, ливневой дождь  10/10 600 м кучево-дожд. 
[Cb cap]
+18.9 +10.2 57 +22  1005.9  0.8  731  273           
12 23.05.11 260 (З) >10 км  {гроза}  9/9 600 м кучево-дожд., средняя 
[Cb cap|Ac trans]
+14.8 +11.1 78 +18  1007.7  1.3  732  277    +21.6     
15 23.05.11 тихо ()   >10 км  слаб. ливневой дождь{гроза}  10/10 600 м кучево-дожд. 
[Cb cap]
+12.4 +10.6 89 +15  1010.1  2.1  733  281           
18 23.05.11 250 (З) 4000 м  слаб. ливневой дождь  10/8 600 м кучево-дожд., средняя 
[Cb cap|Ac trans]
+11.1 +8.9 86 +12  1010.1  -0.1  733  282           
21 23.05.11 240 (ЮЗ) >10 км  {ливн. осадки}  6/6 600 м кучево-дожд. 
[Cb cap]
+10 +7.6 85 +9  1010.6  0.3  733  284           
00 24.05.11 260 (З) >10 км  {ливн. осадки}  5/5 600 м кучево-дожд. 
[Cb cap]
+10.1 +7.6 84 +11  1011.6  0.9  734  284  +8.9    0.7     
03 24.05.11 230 (ЮЗ) >10 км    8/4 600 м кучево-дожд., верхняя 
[Cb cap|Ci fib]
+14.6 +6.1 57 +16  1011.1  0.1  734  280           
06 24.05.11 230 (ЮЗ) >10 км    10/10 600 м кучево-дожд. 
[Cb cap]
+17 +4.8 44 +17  1009.7  -1.1  733  277           
09 24.05.11 200 (Ю) >10 км  {ливн. осадки}  8/8 600 м кучево-дожд. 
[Cb cap]
+17.7 +3.2 38 +19  1008.9  -0.7  733  277           
12 24.05.11 330 (СЗ) >10 км  {ливн. осадки}  10/10 600 м кучево-дожд. 
[Cb cap]
+14.2 +7.3 63 +15  1010.2  0.8  733  280    +18.6  0.8     
15 24.05.11 290 (З) >10 км  {ливн. осадки}  10/6 600 м кучево-дожд., средняя, верхняя 
[Cb cap|Ac trans|Cs]
+10 +6.1 77 +11  1012.3  1.6  734  284           
18 24.05.11 240 (ЮЗ) 4000 м  {ливн. осадки}  10/3 600 м кучево-дожд., средняя, верхняя 
[Cb cap|Ac trans|Cs]
+8.2 +4.8 79 +9  1011.3  -1.2  734  286           
21 24.05.11 230 (ЮЗ) >10 км    10/6 600 м кучево-дожд., средняя 
[Cb cap|Ac As]
+7.7 +4.8 82 +9  1009.7  -1.6  732  286           
00 25.05.11 тихо ()   >10 км    10/10 600 м кучево-дожд. 
[Cb cap]
+8.2 +5.9 85 +8  1008.7  -0.9  732  285  +7.1    0.6     
03 25.05.11 040 (СВ) >10 км    8/8 1000 м 
[Cu hum]
+11.8 +6.5 70 +13  1007.8  -0.4  731  281           
06 25.05.11 310 (СЗ) >10 км    9/9 600 м кучево-дожд. 
[Cb cap]
+10.2 +4.1 66 +10  1010  1.9  733  284           
09 25.05.11 320 (СЗ) >10 км    8/8 1000 м 
[Cu hum]
+12.4 +3.4 54 +13  1010.7  0.9  734  282           
12 25.05.11 010 (С) >10 км    6/6 1000 м 
[Cu hum]
+12.1 +3.8 57 +13  1010.8  0.1  734  282    +13.5       
15 25.05.11 250 (З) >10 км    5/5 2000 м средняя 
[Ac trans]
+6.2 +3.1 81 +7  1013.5  1.9  735  289           
18 25.05.11 240 (ЮЗ) 4000 м    ясно 
+3.2 +2.3 94 +4  1013.3  -0.6  735  292           
21 25.05.11 тихо ()   >10 км    ясно 
+1.6 +1.1 96 +2  1013.3  -0.2  734  294           
00 26.05.11 050 (СВ) >10 км    ясно 
+5.2 +2.7 84 +6  1012.2  -0.6  734  290  +0.7         
03 26.05.11 090 (В) >10 км    6/0 верхняя 
[Ci fib]
+12.1 +5 62 +12  1010.1  -1.2  733  282           
06 26.05.11 100 (В) >10 км    4/0 верхняя 
[Ci fib]
+18.2 +5 42 +19  1007.5  -1.9  732  276           
09 26.05.11 100 (В) >10 км    3/0 верхняя 
[Ci fib]
+21.5 +2.7 29 +22  1005.4  -1.7  730  272           
12 26.05.11 100 (В) >10 км    8/0 2000 м средняя, верхняя 
[Ac trans|Ci fib]
+21.1 +1.7 28 +21  1004.5  -0.9  730  273    +21.5       
15 26.05.11 тихо ()   >10 км    9/4 2000 м средняя, верхняя 
[Ac lent|Ci fib]
+14.3 +5 54 +14  1005.2  -0.1  730  279           
18 26.05.11 270 (З) 4000 м    9/0 верхняя 
[Ci fib]
+11.4 +5.1 65 +13  1004.3  -1.1  729  281           
21 26.05.11 240 (ЮЗ) >10 км    9/8 600 м кучево-дожд., средняя, верхняя 
[Cb cap|Ac trans|Ci fib]
+9.7 +5.6 76 +11  1004.1  -0.3  729  283           
00 27.05.11 240 (ЮЗ) >10 км  слаб. ливневой дождь  10/10 600 м кучево-дожд. 
[Cb cap]
+12.6 +8.6 77 +13  1005  1.1  729  279  +9.2    0.0     
03 27.05.11 230 (ЮЗ) >10 км  слаб. ливневой дождь  10/10 600 м кучево-дожд. 
[Cb cap]
+12.3 +11.2 93 +15  1006.1  -1.1  730  279           
06 27.05.11 250 (З) >10 км  слаб. ливневой дождь  10/10 600 м кучево-дожд. 
[Cb cap]
+14.3 +13 92 +22  1006.5  0.7  731  277           
09 27.05.11 тихо ()   >10 км  слаб. ливневой дождь  10/10 600 м кучево-дожд. 
[Cb cap]
+13.6 +13 96 +20  1007.9  1.1  732  278           
12 27.05.11 тихо ()   >10 км  в посл. час ливневой дождь  10/8 600 м кучево-дожд., средняя 
[Cb cap|As op]
+13.9 +12.8 93 +20  1008.4  0.7  732  278    +14.6  15     
15 27.05.11 260 (З) >10 км  слаб. ливневой дождь  10/10 600 м кучево-дожд. 
[Cb cap]
+12.1 +11 93 +15  1010.9  2.2  734  281           
18 27.05.11 260 (З) 4000 м  слаб. ливневой дождь  10/10 600 м кучево-дожд. 
[Cb cap]
+11 +1.1 50 +12  1011.6  0.4  734  284           
21 27.05.11 250 (З) >10 км  слаб. ливневой дождь  10/10 600 м кучево-дожд. 
[Cb cap]
+10.4 +8.8 90 +10  1013.3  1.7  735  284           
00 28.05.11 250 (З) >10 км  в посл. час ливневой дождь  10/9 600 м кучево-дожд., средняя 
[Cb cap|Ac trans]
+9.9 +8.1 89 +9  1015.6  2.1  737  285  +9.8       
03 28.05.11 250 (З) >10 км    10/4 600 м кучево-дожд., средняя, верхняя 
[Cb cap|Ac trans|Cs]
+12.9 +7.6 70 +13  1016.8  1.5  738  283           
06 28.05.11 230 (ЮЗ) >10 км    9/6 600 м кучево-дожд., верхняя 
[Cb cap|Ci fib]
+17.7 +5.9 46 +18  1016.2  738  278           
09 28.05.11 200 (Ю) >10 км    10/6 600 м кучево-дожд., верхняя 
[Cb cap|Cs]
+18.5 +6.2 45 +19  1016.7  0.5  738  278           
12 28.05.11 тихо ()   >10 км    10/3 2000 м средняя, верхняя 
[Ac trans|Cs]
+18 +9.4 57 +19  1017  0.2  739  277    +19.1       
15 28.05.11 240 (ЮЗ) >10 км    10/3 2000 м средняя, верхняя 
[Ac trans|Cs]
+11.5 +8 79 +13  1018.5  0.8  739  284           
18 28.05.11 250 (З) 4000 м    3/0 верхняя 
[Ci fib]
+8.8 +5.8 81 +10  1019.2  0.4  739  288           
21 28.05.11 тихо ()   >10 км    ясно 
+6.8 +5.7 93 +7  1019.7  0.2  740  290           
00 29.05.11 тихо ()   4000 м    ясно 
+10.5 +7.4 81 +11  1019.8  0.6  740  286  +6.8         
03 29.05.11 070 (В) >10 км    ясно 
+18.7 +7.7 49 +20  1019.3  0.4  740  278           
06 29.05.11 090 (В) >10 км    9/5 600 м кучево-дожд., верхняя 
[Cb cap|Ci fib]
+21.6 +7.6 40 +22  1018.4  -0.6  740  275           
09 29.05.11 120 (ЮВ) >10 км    9/9 1000 м 
[Cu hum]
+22.9 +6.8 35 +23  1017.7  -0.5  740  274           
12 29.05.11 110 (В) >10 км    8/3 600 м кучево-дожд., средняя, верхняя 
[Cb cap|Ac trans|Ci fib]
+22.7 +7.4 37 +23  1017.2  -0.5  740  274    +23.5       
15 29.05.11 240 (ЮЗ) >10 км    8/4 600 м средняя 
[Cu med, cong|Ac trans]
+15.5 +7.3 58 +16  1018.8  0.8  740  281           
18 29.05.11 230 (ЮЗ) 4000 м    3/3 600 м 
[Cu hum]
+13.5 +6.7 63 +14  1019.4  0.3  740  283           
21 29.05.11 тихо ()   >10 км    ясно 
+11.6 +7.7 77 +12  1019.7  0.1  740  285           
00 30.05.11 тихо ()   >10 км    9/5 600 м кучево-дожд., средняя, верхняя 
[Cb cap|Ac trans|Ci fib]
+12.5 +8.6 77 +13  1020.3  0.7  741  284  +10         
03 30.05.11 070 (В) >10 км    4/0 верхняя 
[Ci fib]
+19.4 +8.9 51 +21  1019.5  741  277           
06 30.05.11 100 (В) >10 км    9/3 600 м кучево-дожд., средняя, верхняя 
[Cb cap|Ac trans|Ci fib]
+23.2 +11 46 +26  1017.5  -1.5  739  273           
09 30.05.11 360 (С) >10 км    10/3 600 м кучево-дожд., средняя, верхняя 
[Cb cap|Ac trans|Ci fib]
+25.9 +9.9 36 +27  1016.3  -1  739  270           
12 30.05.11 250 (З) >10 км    10/4 600 м кучево-дожд., средняя, верхняя 
[Cb cap|Ac trans|Ci fib]
+24.9 +8.9 36 +25  1015.1  -1.2  738  271    +25.9       
15 30.05.11 210 (ЮЗ) >10 км    5/3 600 м кучево-дожд., средняя, верхняя 
[Cb cap|Ac trans|Ci fib]
+17.9 +10.9 64 +22  1015.6  -0.3  738  277           
18 30.05.11 260 (З) 4000 м    ясно 
+14.2 +9.5 73 +16  1015  -0.9  737  281           
21 30.05.11 250 (З) >10 км    ясно 
+11.4 +8.5 82 +13  1013.9  -1.4  736  283           
00 31.05.11 тихо ()   >10 км    ясно 
+15.6 +10.4 71 +18  1015  -0.4  736  278  +10.4         
03 31.05.11 080 (В) >10 км    4/0 верхняя 
[Ci fib]
+20.9 +10.9 53 +24  1011.8  -0.7  735  273           
06 31.05.11 070 (В) >10 км    6/0 верхняя 
[Ci fib]
+25.9 +9.3 35 +27  1010  -1.2  734  269           
09 31.05.11 100 (В) >10 км    8/3 1000 м верхняя 
[Cu hum|Ci fib]
+27.5 +8.2 30 +28  1007.8  -1.9  733  267           
12 31.05.11 050 (СВ) >10 км    8/3 1000 м верхняя 
[Cu hum|Ci fib]
+26.5 +10 35 +28  1007.4  -0.5  732  267    +27.8       
15 31.05.11 250 (З) >10 км    6/1 1000 м верхняя 
[Cu hum|Ci fib]
+19.3 +10.9 58 +23  1007.9  -0.3  732  273           
18 31.05.11 240 (ЮЗ) 4000 м    ясно 
+15.2 +7.1 58 +17  1008.9  0.5  732  278           
21 31.05.11 260 (З) >10 км    ясно 
+12.5 +8.1 75 +13  1009.2  732  281           
00 01.06.11 тихо ()   >10 км    ясно 
+15.3 +8.9 66 +16  1009.4  0.6  733  278  +12.5         
03 01.06.11 090 (В) >10 км    ясно 
+20.6 +4.3 34 +21  1009  0.1  733  274           
06 01.06.11 090 (В) >10 км    9/0 верхняя 
[Ci fib]
+24.5 +1.5 22 +25  1008  -0.6  733  271           
Время (UTC), дата Ветер
(°,м/с) 
Видим.   Явления Облачность Т
(°С)
Тd
(°С)
f(%) Тe
(°С)
Pmin
(гПа)
dP
(гПа)
Po
(мм)
O2
(г/м3)
Тmin Tmax R s Состояние
почвы